STARLINK-3950 (53264 NORAD) Tracking and Keplerian Element Data

This shows tracking and keplerian element data for the satellite.

Feedback or suggestion? Click here.




ElementValue
Catalog53264
NameSTARLINK-3950
Epoch Orbit130
Epoch Day269.91667824
Epoch Year2022
RAAN89.6703
Inclination53.2172
Eccentricity0.0001343
Argument of Perigee70.407
Mean Anonmoly155.1648
Mean Motion15.2126738
Decay Rate-0.01140922
L11 53264U 22086Y 22269.91667824 -.01140922 00000+0 -54629-1 0 9999
L22 53264 53.2172 89.6703 0001343 70.4070 155.1648 15.21267380 1303

Live tracking and technical data element details for STARLINK-3950 (NORAD 53264). STARLINK-3950 can be tracked NOW for your location showing map with azimuth and elevation plus other details from your city location.

Track the satellite on the map from your city or location and see movement details for azimuth, elevation, latitude, longitude, range, height, and movement on the map or in text.







IsCatalogInMostPopularTable: catalog: 53264, numindb: 5
Update: records affected: 1



GetName: 53264 STARLINK-3950

Hit Count: updated at: Fri, 30 Sep 2022 04:13:10 GMT